Weather History for KPRB - January, 2013

Change the Weather History Date:

Friday, January 11, 2013

  Actual Average Record
Temperature  
Mean Temperature 39 °F 47 °F  
Max Temperature 51 °F 59 °F 72 °F (2010)
Min Temperature 27 °F 34 °F 17 °F (1949)
Degree Days  
Heating Degree Days 26 18  
Month to date heating degree days 232 203  
Since 1 July heating degree days 1171 1327  
Cooling Degree Days 0 0  
Month to date cooling degree days 0 0  
Year to date cooling degree days 0 0  
Moisture  
Dew Point 30 °F    
Average Humidity 70    
Maximum Humidity 100    
Minimum Humidity 39    
Precipitation  
Precipitation T in 0.10 in 1.12 in (1980)
Month to date precipitation 0.43 0.97  
Year to date precipitation 0.43 0.97  
Since 1 July precipitation 3.64 4.96  
Sea Level Pressure  
Sea Level Pressure 30.17 in    
Wind  
Wind Speed 4 mph (NW)    
Max Wind Speed 16 mph    
Max Gust Speed -    
Visibility 10 miles    
Events Rain    
T = Trace of Precipitation, MM = Missing Value Source: NWS Daily Summary

Daily Weather History Graph

Daily Weather History Graph

Search for Another Location

Airport or City:

Trip Planner

Search our weather history database for the weather conditions in past years. The results will help you decide how hot, cold, wet, or windy it might be!

Date:

Astronomy

Jan. 11, 2013 Rise Set
Actual Time 7:12 AM PST 5:09 PM PST
Civil Twilight 6:44 AM PST 5:37 PM PST
Nautical Twilight 6:12 AM PST 6:08 PM PST
Astronomical Twilight 5:42 AM PST 6:39 PM PST
Moon 6:51 AM PST (1/11) 5:30 PM PST (1/11)
Length of Visible Light 10h 52m
Length of Day
9h 56m
New Moon, 0% of the Moon is Illuminated
Jan 11
New Moon
Jan 18
First Quarter
Jan 26
Full
Feb 3
Last Quarter
Feb 9
New

Hourly Weather History & Observations

Time (PST) Temp. Windchill Dew Point Humidity Pressure Visibility Wind Dir Wind Speed Gust Speed Precip Events Conditions
12:53 AM 34.0 °F 31.0 °F 30.0 °F 85% 30.18 in 10.0 mi WNW 3.5 mph - N/A   Clear
1:53 AM 32.0 °F 27.5 °F 28.9 °F 88% 30.19 in 10.0 mi SSW 4.6 mph - N/A   Clear
2:53 AM 30.0 °F - 28.0 °F 92% 30.20 in 10.0 mi Calm Calm - N/A   Clear
3:53 AM 28.9 °F - 27.0 °F 92% 30.20 in 10.0 mi Calm Calm - N/A   Clear
4:53 AM 28.9 °F - 28.0 °F 96% 30.20 in 10.0 mi Calm Calm - N/A   Clear
5:53 AM 28.0 °F 22.8 °F 25.0 °F 88% 30.22 in 10.0 mi East 4.6 mph - N/A   Clear
6:53 AM 27.0 °F 23.0 °F 25.0 °F 92% 30.23 in 10.0 mi ESE 3.5 mph - N/A   Clear
7:53 AM 28.9 °F - 28.0 °F 96% 30.24 in 10.0 mi Calm Calm - N/A   Clear
8:53 AM 32.0 °F - 30.9 °F 96% 30.25 in 10.0 mi Calm Calm - N/A   Clear
9:53 AM 36.0 °F - 33.1 °F 89% 30.25 in 10.0 mi Calm Calm - N/A   Clear
10:53 AM 41.0 °F 38.0 °F 34.0 °F 76% 30.25 in 10.0 mi NNW 4.6 mph - N/A   Clear
12:53 PM 48.0 °F - 30.0 °F 50% 30.18 in 10.0 mi NNW 10.4 mph - N/A   Clear
1:53 PM 48.9 °F - 25.0 °F 39% 30.17 in 10.0 mi NNW 8.1 mph - N/A   Scattered Clouds
2:53 PM 50.0 °F - 26.1 °F 39% 30.14 in 10.0 mi NNW 9.2 mph - N/A   Mostly Cloudy
3:53 PM 48.9 °F - 24.1 °F 38% 30.14 in 10.0 mi NW 15.0 mph - N/A   Overcast
4:53 PM 46.9 °F - 28.0 °F 48% 30.14 in 10.0 mi NW 9.2 mph - N/A   Overcast
5:53 PM 45.0 °F 43.5 °F 30.0 °F 56% 30.13 in 10.0 mi West 3.5 mph - N/A   Overcast
6:53 PM 45.0 °F 41.8 °F 30.9 °F 58% 30.12 in 10.0 mi NW 5.8 mph - N/A   Overcast
7:53 PM 43.0 °F 38.8 °F 34.0 °F 71% 30.12 in 10.0 mi NW 6.9 mph - N/A   Overcast
8:53 PM 43.0 °F 39.5 °F 35.1 °F 74% 30.12 in 10.0 mi WNW 5.8 mph - N/A   Overcast
9:53 PM 41.0 °F 38.0 °F 35.1 °F 79% 30.13 in 10.0 mi West 4.6 mph - 0.00 in Rain Light Rain
10:23 PM 41.0 °F 39.0 °F 35.6 °F 81% 30.12 in 10.0 mi WNW 3.5 mph - 0.00 in   Overcast
10:44 PM 41.0 °F 38.0 °F 37.4 °F 87% 30.12 in 10.0 mi WNW 4.6 mph - 0.00 in   Overcast
10:53 PM 41.0 °F 37.1 °F 37.0 °F 86% 30.13 in 10.0 mi NW 5.8 mph - 0.00 in   Overcast
11:53 PM 39.0 °F - 36.0 °F 89% 30.13 in 10.0 mi Calm Calm - N/A   Partly Cloudy